DW8487 Weather Reports


time (UTC)temp
C
wind
direction
speed
KPH
gust
KPH
rain 1hr
cm
rain 24hr
cm
rain mn
cm
humidity
%
barometer
mb
20260505041533 -17 40 0.0 1.6 0.03 0.71 0.30 1014.3
20260505040018 3 40 0.0 1.6 0.03 0.71 0.30 92 1014.4
20260505034515 3 40 0.0 3.2 0.03 0.71 0.30 92 1014.3
20260505033015 3 40 0.0 3.2 0.03 0.71 0.30 92 1014.3
20260505031525 3 40 0.0 0.0 0.00 0.71 0.28 92 1014.4
20260505030014 3 40 0.0 3.2 0.00 0.71 0.28 92 1014.4
20260505024512 3 40 0.0 3.2 0.00 0.71 0.28 92 1014.4
20260505023014 3 40 0.0 3.2 0.00 0.71 0.28 92 1014.7
20260505021508 3 40 0.0 1.6 0.00 0.71 0.28 92 1015.0
20260505020007 3 40 0.0 3.2 0.00 0.71 0.28 92 1015.1
20260505014512 3 40 1.6 4.8 0.00 0.71 0.28 91 1015.1
20260505013006 3 168 0.0 3.2 0.00 0.71 0.28 91 1015.2
20260505011504 3 172 4.8 8.0 0.00 0.71 0.28 91 1015.3
20260505010130 3 150 3.2 4.8 0.00 0.71 0.28 91 1015.9
20260505004559 3 162 1.6 6.4 0.00 0.71 0.28 91 1016.2
20260505003116 3 148 0.0 3.2 0.03 0.71 0.28 91 1016.4
20260505001557 3 148 0.0 4.8 0.05 0.71 0.28 91 1016.3
20260505000100 3 203 3.2 6.4 0.10 0.71 0.28 91 1016.8
20260504234553 3 183 0.0 3.2 0.23 0.71 0.28 91 1016.9
20260504233020 3 183 0.0 11.3 0.23 0.69 0.25 90 1017.2
20260504231546 3 184 6.4 8.0 0.20 0.66 0.23 91 1017.6
20260504230100 4 17 1.6 3.2 0.18 0.61 0.18 92 1017.8
20260504224555 -17 17 3.2 8.0 0.05 0.46 0.05 1018.2
20260504223034 -17 163 1.6 4.8 0.08 0.46 0.05 1018.2
20260504221529 4 163 0.0 3.2 0.08 0.46 0.05 91 1018.3
20260504220026 4 163 0.0 3.2 0.05 0.43 0.43 91 1018.6
20260504214537 4 163 0.0 3.2 0.03 0.41 0.41 91 1018.6
20260504213029 4 163 1.6 4.8 0.00 0.38 0.38 91 1018.5
20260504211525 4 163 1.6 3.2 0.00 0.38 0.38 91 1018.4
20260504210025 4 163 0.0 3.2 0.00 0.38 0.38 91 1018.4
20260504204524 4 163 1.6 4.8 0.00 0.38 0.38 91 1018.6
20260504203054 4 163 1.6 3.2 0.03 0.38 0.38 91 1018.8
20260504201523 4 163 0.0 3.2 0.05 0.38 0.38 91 1018.6
20260504200022 4 163 1.6 4.8 0.05 0.38 0.38 91 1018.5
20260504194519 4 163 1.6 4.8 0.08 0.38 0.38 90 1018.6
20260504193019 4 163 3.2 6.4 0.08 0.36 0.36 90 1018.5
20260504191520 4 163 3.2 8.0 0.10 0.33 0.33 90 1018.3
20260504190015 4 163 0.0 4.8 0.13 0.33 0.33 90 1018.2
20260504184524 5 163 3.2 6.4 0.15 0.30 0.30 89 1018.1
20260504183020 5 163 1.6 6.4 0.15 0.28 0.28 89 1018.1
20260504181510 5 163 1.6 4.8 0.13 0.23 0.23 89 1018.0
20260504180008 5 163 0.0 4.8 0.05 0.18 0.18 88 1017.8
20260504174506 5 163 1.6 4.8 0.05 0.15 0.15 87 1017.7
20260504173005 6 178 6.4 9.7 0.03 0.15 0.15 87 1017.5
20260504171504 6 171 1.6 8.0 0.00 0.13 0.13 88 1017.5
20260504160106 6 167 3.2 8.0 0.05 0.13 0.13 86 1017.4
20260504120112 8 109 0.0 9.7 0.00 0.00 0.00 75 1017.6
20260504081539 7 58 0.0 3.2 0.00 0.00 0.00 78 1017.4
20260504050011 6 5 1.6 12.9 0.00 0.00 0.00 78 1016.6